Nampa, ID

2:15 AM MDT on July 25, 2017 (GMT -0600)
Nampa

Weather History for KMAN - April, 2013

Change the Weather History Date:

Friday, April 19, 2013

  Actual Average (KBOI) Record (KBOI)
Temperature  
Mean Temperature 47 °F -  
Max Temperature 55 °F 60 °F 87 °F (1910)
Min Temperature 39 °F 36 °F 22 °F (1966)
Degree Days  
Heating Degree Days 18    
Moisture  
Dew Point 42 °F    
Average Humidity 82    
Maximum Humidity 100    
Minimum Humidity 49    
Precipitation  
Precipitation 0.15 in - - ()
Sea Level Pressure  
Sea Level Pressure 30.13 in    
Wind  
Wind Speed 4 mph (South)    
Max Wind Speed 13 mph    
Max Gust Speed 20 mph    
Visibility 9 miles    
Events      
Averages and records for this station are not official NWS values.
T = Trace of Precipitation, MM = Missing Value Source: NWS Daily Summary

Daily Weather History Graph

Daily Weather History Graph

Search for Another Location

Airport or City:

Trip Planner

Search our weather history database for the weather conditions in past years. The results will help you decide how hot, cold, wet, or windy it might be!

Date:

Astronomy

Apr. 19, 2013 Rise Set
Actual Time 6:56 AM MDT 8:34 PM MDT
Civil Twilight 6:26 AM MDT 9:04 PM MDT
Nautical Twilight 5:49 AM MDT 9:41 PM MDT
Astronomical Twilight 5:10 AM MDT 10:21 PM MDT
Moon 2:12 PM MDT (4/19) 3:25 AM MDT (4/19)
Length of Visible Light 14h 38m
Length of Day
13h 38m
Waxing Gibbous, 62% of the Moon is Illuminated
Apr 19
Waxing Gibbous
Apr 25
Full
May 2
Last Quarter
May 9
New
May 17
First Quarter

Hourly Weather History & Observations

Time (MDT) Temp. Windchill Dew Point Humidity Pressure Visibility Wind Dir Wind Speed Gust Speed Precip Events Conditions
12:15 AM 44.6 °F - 26.6 °F 49% 30.25 in 10.0 mi Calm Calm - N/A   Overcast
12:35 AM 44.6 °F 43.1 °F 26.6 °F 49% 30.25 in 10.0 mi ESE 3.5 mph - N/A   Overcast
12:55 AM 44.6 °F - 26.6 °F 49% 30.24 in 10.0 mi Calm Calm - N/A   Mostly Cloudy
1:15 AM 44.6 °F 43.1 °F 28.4 °F 53% 30.23 in 10.0 mi SE 3.5 mph - N/A   Mostly Cloudy
1:35 AM 44.6 °F 43.1 °F 28.4 °F 53% 30.23 in 10.0 mi ESE 3.5 mph - N/A   Mostly Cloudy
1:55 AM 42.8 °F - 28.4 °F 57% 30.23 in 10.0 mi Calm Calm - N/A   Clear
2:15 AM 41.0 °F 39.0 °F 28.4 °F 61% 30.22 in 10.0 mi ESE 3.5 mph - N/A   Partly Cloudy
2:35 AM 41.0 °F 39.0 °F 26.6 °F 57% 30.22 in 10.0 mi East 3.5 mph - N/A   Mostly Cloudy
2:55 AM 41.0 °F 38.0 °F 26.6 °F 57% 30.22 in 10.0 mi East 4.6 mph - N/A   Overcast
3:15 AM 41.0 °F 39.0 °F 26.6 °F 57% 30.21 in 10.0 mi East 3.5 mph - N/A   Overcast
3:35 AM 41.0 °F - 28.4 °F 61% 30.21 in 10.0 mi Calm Calm - N/A   Overcast
3:55 AM 41.0 °F 38.0 °F 28.4 °F 61% 30.20 in 10.0 mi East 4.6 mph - N/A   Overcast
4:15 AM 39.2 °F 37.0 °F 28.4 °F 65% 30.20 in 10.0 mi SSE 3.5 mph - N/A   Overcast
4:35 AM 41.0 °F 38.0 °F 28.4 °F 61% 30.20 in 10.0 mi East 4.6 mph - N/A   Overcast
4:55 AM 41.0 °F 39.0 °F 30.2 °F 65% 30.20 in 10.0 mi South 3.5 mph - N/A   Overcast
5:15 AM 41.0 °F 39.0 °F 28.4 °F 61% 30.19 in 10.0 mi SE 3.5 mph - N/A   Overcast
5:35 AM 41.0 °F 38.0 °F 28.4 °F 61% 30.19 in 10.0 mi ESE 4.6 mph - N/A   Overcast
5:55 AM 42.8 °F - 28.4 °F 57% 30.19 in 10.0 mi Calm Calm - N/A   Overcast
6:15 AM 41.0 °F - 28.4 °F 61% 30.20 in 10.0 mi North - - N/A   Overcast
6:35 AM 41.0 °F - 32.0 °F 70% 30.20 in 10.0 mi North - - N/A   Overcast
6:55 AM 41.0 °F - 33.8 °F 76% 30.20 in 9.0 mi Calm Calm - N/A   Mostly Cloudy
7:15 AM 41.0 °F 39.0 °F 37.4 °F 87% 30.20 in 5.0 mi SE 3.5 mph - N/A   Scattered Clouds
7:35 AM 41.0 °F 38.0 °F 39.2 °F 93% 30.19 in 6.0 mi SSE 4.6 mph - 0.01 in   Clear
7:55 AM 41.0 °F 38.0 °F 39.2 °F 93% 30.19 in 8.0 mi ESE 4.6 mph - 0.01 in   Mostly Cloudy
8:15 AM 41.0 °F - 41.0 °F 100% 30.19 in 7.0 mi Calm Calm - N/A   Mostly Cloudy
8:35 AM 41.0 °F - 41.0 °F 100% 30.19 in 7.0 mi Calm Calm - 0.01 in   Mostly Cloudy
8:55 AM 42.8 °F - 42.8 °F 100% 30.19 in 5.0 mi Calm Calm - 0.01 in   Mostly Cloudy
9:15 AM 44.6 °F 43.1 °F 44.6 °F 100% 30.18 in 5.0 mi SE 3.5 mph - 0.01 in   Mostly Cloudy
9:35 AM 44.6 °F 41.4 °F 44.6 °F 100% 30.17 in 5.0 mi ESE 5.8 mph - 0.02 in   Partly Cloudy
9:55 AM 44.6 °F 41.4 °F 44.6 °F 100% 30.16 in 8.0 mi ESE 5.8 mph - 0.02 in   Clear
10:15 AM 46.4 °F 41.9 °F 46.4 °F 100% 30.15 in 9.0 mi ESE 9.2 mph - N/A   Mostly Cloudy
10:35 AM 46.4 °F 42.4 °F 46.4 °F 100% 30.15 in 8.0 mi ESE 8.1 mph - N/A   Overcast
10:55 AM 48.2 °F - 46.4 °F 93% 30.14 in 10.0 mi SE 8.1 mph - N/A   Mostly Cloudy
11:15 AM 48.2 °F - 48.2 °F 100% 30.14 in 9.0 mi SE 9.2 mph - N/A   Scattered Clouds
11:35 AM 50.0 °F - 48.2 °F 94% 30.13 in 10.0 mi SE 8.1 mph - N/A   Mostly Cloudy
11:55 AM 51.8 °F - 48.2 °F 88% 30.12 in 10.0 mi East 9.2 mph - N/A   Mostly Cloudy
12:15 PM 53.6 °F - 48.2 °F 82% 30.12 in 10.0 mi SE 6.9 mph - N/A   Partly Cloudy
12:35 PM 53.6 °F - 48.2 °F 82% 30.11 in 10.0 mi SSE 5.8 mph - N/A   Mostly Cloudy
12:55 PM 53.6 °F - 46.4 °F 77% 30.11 in 10.0 mi SE 6.9 mph - N/A   Scattered Clouds
1:15 PM 51.8 °F - 48.2 °F 88% 30.11 in 4.0 mi SSW 4.6 mph - N/A   Mostly Cloudy
1:35 PM 51.8 °F - 50.0 °F 94% 30.10 in 4.0 mi WSW 9.2 mph - 0.01 in   Partly Cloudy
1:55 PM 51.8 °F - 50.0 °F 94% 30.10 in 5.0 mi WSW 10.4 mph - 0.01 in   Partly Cloudy
2:15 PM 51.8 °F - 50.0 °F 94% 30.09 in 5.0 mi West 6.9 mph - N/A   Scattered Clouds
2:35 PM 50.0 °F - 50.0 °F 100% 30.09 in 5.0 mi West 5.8 mph - 0.01 in   Partly Cloudy
2:55 PM 51.8 °F - 50.0 °F 94% 30.08 in 8.0 mi West 6.9 mph - 0.01 in   Clear
3:15 PM 51.8 °F - 51.8 °F 100% 30.07 in 8.0 mi West 10.4 mph - 0.01 in   Partly Cloudy
3:35 PM 51.8 °F - 51.8 °F 100% 30.07 in 5.0 mi West 9.2 mph - 0.01 in   Scattered Clouds
3:55 PM 50.0 °F - 50.0 °F 100% 30.06 in 5.0 mi West 12.7 mph 19.6 mph 0.02 in   Clear
4:15 PM 50.0 °F - 50.0 °F 100% 30.05 in 10.0 mi West 9.2 mph - N/A   Clear
4:35 PM 51.8 °F - 48.2 °F 88% 30.04 in 10.0 mi West 8.1 mph - N/A   Clear
4:55 PM 53.6 °F - 46.4 °F 77% 30.03 in 10.0 mi West 6.9 mph - N/A   Clear
5:15 PM 53.6 °F - 46.4 °F 77% 30.03 in 10.0 mi WNW 3.5 mph - N/A   Clear
5:35 PM 53.6 °F - 46.4 °F 77% 30.02 in 10.0 mi NW 3.5 mph - N/A   Mostly Cloudy
5:55 PM 53.6 °F - 46.4 °F 77% 30.02 in 9.0 mi Calm Calm - N/A   Mostly Cloudy
6:15 PM 53.6 °F - 46.4 °F 77% 30.02 in 10.0 mi NNE 3.5 mph - N/A   Partly Cloudy
6:35 PM 55.4 °F - 46.4 °F 72% 30.01 in 10.0 mi Calm Calm - N/A   Scattered Clouds
6:55 PM 55.4 °F - 44.6 °F 67% 30.01 in 10.0 mi Calm Calm - N/A   Clear
7:15 PM 53.6 °F - 46.4 °F 77% 30.01 in 10.0 mi SW 5.8 mph - N/A   Partly Cloudy
7:35 PM 53.6 °F - 48.2 °F 82% 30.01 in 10.0 mi SW 6.9 mph - N/A   Mostly Cloudy
7:55 PM 48.2 °F - 48.2 °F 100% 30.04 in 2.0 mi NNW 10.4 mph - 0.07 in   Overcast
8:15 PM 48.2 °F - 48.2 °F 100% 30.03 in 9.0 mi Calm Calm - N/A   Mostly Cloudy
8:35 PM 48.2 °F - 48.2 °F 100% 30.03 in 10.0 mi West 3.5 mph - N/A   Mostly Cloudy
8:55 PM 48.2 °F - 48.2 °F 100% 30.05 in 10.0 mi WNW 8.1 mph - N/A   Mostly Cloudy
9:15 PM 50.0 °F - 46.4 °F 87% 30.05 in 10.0 mi NW 5.8 mph - N/A   Overcast
9:35 PM 48.2 °F - 48.2 °F 100% 30.06 in 10.0 mi NW 5.8 mph - N/A   Overcast
9:55 PM 50.0 °F - 48.2 °F 94% 30.07 in 10.0 mi NW 4.6 mph - N/A   Overcast
10:15 PM 48.2 °F - 48.2 °F 100% 30.07 in 10.0 mi West 5.8 mph - N/A   Overcast
10:35 PM 48.2 °F - 48.2 °F 100% 30.07 in 10.0 mi NW 5.8 mph - N/A   Overcast
10:55 PM 48.2 °F - 48.2 °F 100% 30.08 in 6.0 mi NW 5.8 mph - N/A   Overcast
11:15 PM 48.2 °F - 48.2 °F 100% 30.08 in 10.0 mi WNW 6.9 mph - N/A   Overcast
11:35 PM 48.2 °F - 48.2 °F 100% 30.08 in 10.0 mi NNW 4.6 mph - N/A   Overcast
11:55 PM 48.2 °F - 46.4 °F 93% 30.09 in 10.0 mi NNW 5.8 mph - N/A   Overcast